Preview of NWS' New Version of Forecast
This preview is not operational and should not be used for support decisions.

Regional Weather Roundup (RWR)

Issued by National Weather Service (NWS)

                            
000
ASUS43 KLSX 222257
RWRMO 

WEATHER SUMMARY FOR MISSOURI
NATIONAL WEATHER SERVICE SPRINGFIELD MO
600 PM CDT MON JUL 22 2019

NOTE: "FAIR" INDICATES FEW OR NO CLOUDS BELOW 12,000 FEET WITH NO
       SIGNIFICANT WEATHER AND/OR OBSTRUCTIONS TO VISIBILITY.
       CURRENT SKY AND/OR WEATHER CONDITIONS ARE NOT AVAILABLE FOR
       CHILLICOTHE AND FARMINGTON.

MOZ001>031-035>038-043-044-053-054-230000-
...NORTHERN AND WESTERN MISSOURI...
  
CITY           SKY/WX    TMP DP  RH WIND       PRES   REMARKS
KANSAS CTY INT MOSUNNY   79  58  48 N15       30.15F                  
LEE'S SUMMIT   SUNNY     80  56  43 N16G28    30.14S                  
ST JOSEPH      SUNNY     80  56  43 N15G26    30.17S                  
CHILLICOTHE      N/A     82  58  43 VRB7      30.14S                  
     
$$
MOZ066>068-077>081-088>096-101>105-230000-
...SOUTHWEST MISSOURI...
  
CITY           SKY/WX    TMP DP  RH WIND       PRES   REMARKS
SPRINGFIELD    MOSUNNY   81  59  47 N17G24    30.08S                  
JOPLIN         MOSUNNY   79  63  57 N9        30.10F                  
BRANSON        PTSUNNY   81  63  54 N9        30.07S                  
               
$$
MOZ032>034-039>042-045>050-055>058-069>072-230000-
...CENTRAL MISSOURI...  
  
CITY           SKY/WX    TMP DP  RH WIND       PRES   REMARKS
COLUMBIA       NOT AVBL                                               
ROLLA          MOSUNNY   80  61  52 N9        30.07S                  
SEDALIA        SUNNY     78  61  55 N12       30.11F                  
WARRENSBURG    SUNNY     77  59  53 N10       30.11F                  
               
$$
MOZ051-052-059>065-230000-
...EAST CENTRAL MISSOURI...
  
CITY           SKY/WX    TMP DP  RH WIND       PRES   REMARKS
ST LOUIS INTL  MOSUNNY   82  60  47 N13       30.03S                  
                   
$$
MOZ072>076-082>087-097>100-106>115-230000-
...SOUTH CENTRAL AND SOUTHEAST MISSOURI...
  
CITY           SKY/WX    TMP DP  RH WIND       PRES   REMARKS
CAPE GIRARDEAU FAIR      79  63  57 N15       29.98S                  
POPLAR BLUFF   FAIR      79  64  60 N16       29.98R                  
WEST PLAINS    MOSUNNY   80  63  55 NE7       30.06S                  
                                       
$$